| time (UTC) | temp C | wind direction | speed KPH | gust KPH | rain 1hr cm | rain 24hr cm | rain mn cm | humidity % | barometer mb |
| 20260505124536 | 11 | 110 | 0.0 | 4.8 | 0.00 | 0.00 | 0.00 | 88 | 1014.6 |
| 20260505123041 | 11 | 0 | 0.0 | 3.2 | 0.00 | 0.00 | 0.00 | 88 | 1014.5 |
| 20260505121537 | 11 | 0 | 0.0 | 1.6 | 0.00 | 0.00 | 0.00 | 89 | 1014.5 |
| 20260505120039 | 11 | 111 | 0.0 | 3.2 | 0.00 | 0.00 | 0.00 | 89 | 1014.4 |
| 20260505114540 | 11 | 121 | 0.0 | 1.6 | 0.00 | 0.00 | 0.00 | 89 | 1014.3 |
| 20260505113041 | 11 | 0 | 0.0 | 3.2 | 0.00 | 0.00 | 0.00 | 90 | 1014.4 |
| 20260505111542 | 10 | 0 | 0.0 | 1.6 | 0.00 | 0.00 | 0.00 | 90 | 1014.3 |
| 20260505101552 | 11 | 0 | 0.0 | 4.8 | 0.00 | 0.00 | 0.00 | 89 | 1013.9 |
| 20260505100038 | 11 | 101 | 0.0 | 3.2 | 0.00 | 0.00 | 0.00 | 89 | 1014.0 |
| 20260505094540 | 11 | 0 | 0.0 | 4.8 | 0.00 | 0.00 | 0.00 | 89 | 1013.9 |
| 20260505093042 | 11 | 99 | 1.6 | 4.8 | 0.00 | 0.00 | 0.00 | 89 | 1013.7 |
| 20260505091539 | 11 | 0 | 0.0 | 4.8 | 0.00 | 0.00 | 0.00 | 88 | 1013.7 |
| 20260505090051 | 11 | 75 | 0.0 | 4.8 | 0.00 | 0.00 | 0.00 | 87 | 1013.6 |
| 20260505084534 | 11 | 0 | 0.0 | 6.4 | 0.00 | 0.00 | 0.00 | 87 | 1013.4 |
| 20260505083038 | 11 | 252 | 1.6 | 8.0 | 0.00 | 0.00 | 0.00 | 86 | 1013.5 |
| 20260505081542 | 12 | 124 | 0.0 | 8.0 | 0.00 | 0.00 | 0.00 | 85 | 1013.4 |
| 20260505080035 | 12 | 0 | 1.6 | 9.7 | 0.00 | 0.00 | 0.00 | 84 | 1013.5 |
| 20260505074534 | 12 | 101 | 1.6 | 9.7 | 0.00 | 0.00 | 0.00 | 84 | 1013.2 |
| 20260505073041 | 12 | 89 | 1.6 | 11.3 | 0.00 | 0.00 | 0.00 | 83 | 1012.9 |
| 20260505071539 | 12 | 121 | 0.0 | 12.9 | 0.00 | 0.00 | 0.00 | 83 | 1012.9 |
| 20260505070041 | 12 | 29 | 3.2 | 9.7 | 0.00 | 0.00 | 0.00 | 82 | 1012.8 |
| 20260505064535 | 13 | 6 | 4.8 | 11.3 | 0.00 | 0.00 | 0.00 | 82 | 1012.6 |
| 20260505063040 | 13 | 81 | 1.6 | 12.9 | 0.00 | 0.00 | 0.00 | 82 | 1012.3 |
| 20260505061540 | 13 | 95 | 1.6 | 8.0 | 0.00 | 0.00 | 0.00 | 81 | 1012.3 |
| 20260505060042 | 14 | 123 | 1.6 | 9.7 | 0.00 | 0.00 | 0.00 | 80 | 1012.2 |
| 20260505054543 | 14 | 105 | 3.2 | 9.7 | 0.00 | 0.00 | 0.00 | 79 | 1012.1 |
| 20260505053042 | 15 | 0 | 3.2 | 9.7 | 0.00 | 0.00 | 0.00 | 78 | 1012.0 |
| 20260505051536 | 15 | 127 | 3.2 | 9.7 | 0.00 | 0.00 | 0.00 | 77 | 1011.9 |
| 20260505041535 | 17 | 65 | 1.6 | 4.8 | 0.00 | 0.00 | 0.00 | 71 | 1011.1 |
| 20260505040035 | 17 | 135 | 0.0 | 6.4 | 0.00 | 0.00 | 0.00 | 70 | 1011.0 |
| 20260505034535 | 18 | 307 | 1.6 | 11.3 | 0.00 | 0.00 | 0.00 | 69 | 1010.5 |
| 20260505033102 | 19 | 55 | 1.6 | 11.3 | 0.00 | 0.00 | 0.00 | 68 | 1010.4 |
| 20260505031540 | 20 | 282 | 0.0 | 3.2 | 0.00 | 0.00 | 0.00 | 66 | 1010.2 |
| 20260505030035 | 20 | 304 | 0.0 | 4.8 | 0.00 | 0.00 | 0.00 | 66 | 1010.0 |
| 20260505024539 | 21 | 306 | 1.6 | 4.8 | 0.00 | 0.00 | 0.00 | 65 | 1009.9 |
| 20260505023042 | 21 | 328 | 1.6 | 6.4 | 0.00 | 0.00 | 0.00 | 64 | 1009.8 |
| 20260505021535 | 22 | 321 | 1.6 | 6.4 | 0.00 | 0.00 | 0.00 | 63 | 1009.8 |
| 20260505020046 | 22 | 283 | 0.0 | 6.4 | 0.00 | 0.00 | 0.00 | 63 | 1009.7 |
| 20260505014539 | 23 | 221 | 0.0 | 6.4 | 0.00 | 0.00 | 0.00 | 62 | 1009.6 |
| 20260505013039 | 24 | 289 | 3.2 | 11.3 | 0.00 | 0.00 | 0.00 | 57 | 1009.7 |
| 20260505011533 | 24 | 260 | 3.2 | 9.7 | 0.00 | 0.00 | 0.00 | 58 | 1009.7 |
| 20260505010040 | 24 | 334 | 3.2 | 9.7 | 0.00 | 0.00 | 0.00 | 57 | 1009.9 |
| 20260505004543 | 23 | 304 | 3.2 | 9.7 | 0.00 | 0.00 | 0.00 | 60 | 1010.1 |
| 20260505003039 | 23 | 292 | 1.6 | 11.3 | 0.00 | 0.00 | 0.00 | 60 | 1010.0 |
| 20260505001540 | 23 | 339 | 1.6 | 6.4 | 0.00 | 0.00 | 0.00 | 59 | 1010.2 |
| 20260505000038 | 23 | 85 | 3.2 | 11.3 | 0.00 | 0.00 | 0.00 | 59 | 1010.3 |
| 20260504234600 | 23 | 78 | 3.2 | 11.3 | 0.00 | 0.00 | 0.00 | 59 | 1010.4 |
| 20260504233035 | 23 | 326 | 1.6 | 12.9 | 0.00 | 0.00 | 0.00 | 58 | 1010.5 |
| 20260504231547 | 23 | 169 | 3.2 | 14.5 | 0.00 | 0.00 | 0.00 | 60 | 1010.5 |
| 20260504230040 | 23 | 339 | 3.2 | 9.7 | 0.00 | 0.00 | 0.00 | 58 | 1010.9 |
| 20260504224537 | 23 | 314 | 3.2 | 9.7 | 0.00 | 0.00 | 0.00 | 59 | 1011.0 |
| 20260504223034 | 22 | 126 | 1.6 | 8.0 | 0.00 | 0.00 | 0.00 | 59 | 1011.1 |
| 20260504221544 | 22 | 279 | 1.6 | 9.7 | 0.00 | 0.00 | 0.00 | 59 | 1011.3 |
| 20260504220042 | 22 | 300 | 4.8 | 9.7 | 0.00 | 0.00 | 0.00 | 61 | 1011.6 |
| 20260504214544 | 22 | 89 | 3.2 | 9.7 | 0.00 | 0.00 | 0.00 | 60 | 1011.5 |
| 20260504213038 | 21 | 0 | 0.0 | 9.7 | 0.00 | 0.00 | 0.00 | 61 | 1011.8 |
| 20260504211535 | 21 | 103 | 0.0 | 6.4 | 0.00 | 0.00 | 0.00 | 61 | 1012.0 |
| 20260504210034 | 20 | 300 | 3.2 | 8.0 | 0.00 | 0.00 | 0.00 | 63 | 1012.3 |
| 20260504204619 | 20 | 0 | 1.6 | 9.7 | 0.00 | 0.00 | 0.00 | 64 | 1012.5 |
| 20260504203040 | 19 | 135 | 0.0 | 8.0 | 0.00 | 0.00 | 0.00 | 68 | 1012.7 |
| 20260504201540 | 18 | 290 | 1.6 | 8.0 | 0.00 | 0.00 | 0.00 | 70 | 1012.9 |
| 20260504200040 | 17 | 0 | 1.6 | 11.3 | 0.00 | 0.00 | 0.00 | 71 | 1013.0 |
| 20260504194545 | 17 | 315 | 1.6 | 9.7 | 0.00 | 0.00 | 0.00 | 72 | 1013.2 |
| 20260504193045 | 16 | 294 | 1.6 | 8.0 | 0.00 | 0.00 | 0.00 | 75 | 1013.2 |
| 20260504191543 | 15 | 281 | 1.6 | 16.1 | 0.00 | 0.00 | 0.00 | 77 | 1013.3 |
| 20260504190047 | 15 | 307 | 1.6 | 8.0 | 0.00 | 0.00 | 0.00 | 77 | 1013.4 |
| 20260504184537 | 15 | 113 | 1.6 | 8.0 | 0.00 | 0.00 | 0.00 | 78 | 1013.4 |
| 20260504183034 | 14 | 105 | 1.6 | 9.7 | 0.00 | 0.00 | 0.00 | 79 | 1013.5 |
| 20260504181540 | 15 | 297 | 0.0 | 6.4 | 0.00 | 0.00 | 0.00 | 79 | 1013.4 |
| 20260504180041 | 14 | 0 | 1.6 | 8.0 | 0.00 | 0.00 | 0.00 | 81 | 1013.5 |
| 20260504174541 | 13 | 169 | 1.6 | 8.0 | 0.00 | 0.00 | 0.00 | 82 | 1013.4 |
| 20260504173036 | 13 | 283 | 1.6 | 8.0 | 0.00 | 0.00 | 0.00 | 82 | 1013.4 |
| 20260504171542 | 13 | 319 | 1.6 | 8.0 | 0.00 | 0.00 | 0.00 | 82 | 1013.5 |